Find Orsted

NORAD ID: 25635 Int'l Des: 1999-008 Owner: DMI Country: DK operational
LEORETROGRADE

当前视图

正在加载3D地球...

关于 Orsted

正在加载描述...

即将过境

Passes for default location (London). Set your location on the main map for personalized predictions.

高度历史

Loading altitude history...

两行轨道根数

1 25635U 99008B 26149.36497690 .00000466 00000-0 11134-3 0 9992
2 25635 96.4837 61.1542 0130286 246.7272 112.0170 14.51790618439234
Epoch: May 29, 2026 • Age: 19 hours

当前状态

高度 736.7 km
速度 7.48 km/s
星下点 34.00°N, 56.1°W
发射日期 Feb 23, 1999
运行时间 27.2 years
类型 other

技术详情

分类 Payload
质量 62.00 kg
干质量 62.00 kg
总质量 62.00 kg
长度 0.80 m
直径 0.50 m
跨度 8.00 m
形状 Box + Ant
制造商 TERMAB
平台类型 Orsted
阶段状态 In Orbit
所有者/国家 DMI/DK

Most Searched